Location: Izdebno
(52.6670°N, 16.2170°E)
Time: 10:41:42
(UTC+01:00)

Transit 2A - Pass Details

Date: 29 January 2023
Orbit: 591 x 964 km, 66.7° (Epoch: 21 March)

Event Time Altitude Azimuth Distance (km) Brightness Sun altitude
Rises 22:02:26 0° 290° (WNW) 3,201 9.8 -47.4°
Enters shadow 22:04:22 - 301° (WNW) 2,615 9.3 -47.6°
Reaches altitude 10° 22:05:22 10° 308° (NW) 2,349 - -47.7°
Maximum altitude 22:09:19 20° 355° (N) 1,840 - -48.1°
Drops below altitude 10° 22:13:33 10° 41° (NE) 2,533 - -48.6°
Sets 22:16:52 0° 58° (ENE) 3,536 - -48.9°
